EW6252 Weather Reports


time (UTC)temp
F
wind
direction
speed
knots
gust
knots
rain 1hr
in
rain 24hr
in
rain mn
in
humidity
%
barometer
mb
20260502163047 68 0.0 0.0 0.00 0.84 0.01 42 1019.0
20260502162531 68 0.0 0.0 0.00 0.84 0.01 41 1019.0
20260502162026 67 0.0 0.0 0.00 0.84 0.01 40 1019.0
20260502161525 67 0.0 0.0 0.00 0.84 0.01 40 1019.0
20260502161026 67 0.0 0.0 0.00 0.84 0.01 38 1019.0
20260502160527 67 0.0 0.0 0.00 0.84 0.01 39 1019.0
20260502151943 64 0.0 0.0 0.01 0.84 0.01 23 1018.6
20260502151430 63 0.0 0.0 0.01 0.84 0.01 21 1018.6
20260502150926 63 0.0 0.0 0.01 0.84 0.01 19 1018.8
20260502150426 63 0.0 0.0 0.01 0.84 0.01 15 1018.8
20260502123421 56 0.0 0.0 0.00 0.83 0.00 100 1017.0
20260502122853 56 0.0 0.0 0.00 0.83 0.00 100 1017.0
20260502122348 56 0.0 0.0 0.00 0.83 0.00 100 1016.6
20260502121825 56 0.0 0.0 0.00 0.83 0.00 100 1016.6
20260502121555 56 0.0 0.0 0.00 0.83 0.00 100 1016.4
20260502121049 56 0.0 0.0 0.00 0.83 0.00 100 1016.4
20260502120301 56 0.0 0.0 0.00 0.83 0.00 100 1016.4
20260502115753 56 0.0 0.0 0.00 0.83 0.00 100 1016.4
20260502115230 56 0.0 0.0 0.00 0.83 0.00 100 1016.4
20260502114959 56 0.0 0.0 0.00 0.83 0.00 100 1016.4
20260502114227 56 0.0 0.0 0.00 0.83 0.00 100 1016.2
20260502113936 56 0.0 0.0 0.00 0.83 0.00 100 1016.2
20260502113200 56 0.0 0.0 0.00 0.83 0.00 100 1016.2
20260502112639 56 0.0 0.0 0.00 0.83 0.00 100 1015.9
20260502112124 56 0.0 0.0 0.00 0.83 0.00 100 1015.9
20260502111621 56 0.0 0.0 0.00 0.83 0.00 100 1015.9
20260502111350 56 0.0 0.0 0.00 0.83 0.00 100 1015.8
20260502110615 56 0.0 0.0 0.00 0.83 0.00 100 1015.8
20260502110039 56 0.0 0.0 0.00 0.83 0.00 100 1015.8
20260502105537 56 0.0 0.0 0.00 0.83 0.00 100 1015.9
20260502105023 56 0.0 0.0 0.00 0.83 0.00 100 1015.9
20260502104512 56 0.0 0.0 0.00 0.83 0.00 100 1015.9
20260502103935 57 0.0 0.0 0.00 0.83 0.00 100 1015.8
20260502103425 57 0.0 0.0 0.00 0.83 0.00 100 1015.8
20260502102922 57 0.0 0.0 0.00 0.83 0.00 100 1015.8
20260502102418 57 0.0 0.0 0.00 0.83 0.00 100 1015.5
20260502101846 57 0.0 0.0 0.00 0.83 0.00 100 1015.5
20260502101603 57 0.0 0.0 0.00 0.83 0.00 100 1015.5
20260502100831 57 0.0 0.0 0.00 0.83 0.00 100 1015.2
20260502100323 57 0.0 0.0 0.00 0.83 0.00 100 1015.2
20260502091123 57 0.0 0.0 0.00 0.83 0.00 100 1014.3
20260502090624 57 0.0 0.0 0.00 0.83 0.00 100 1014.3
20260502090108 57 0.0 0.0 0.00 0.83 0.00 100 1014.3
20260502071129 58 0.0 0.0 0.00 0.83 0.00 100 1014.0
20260502070628 58 0.0 0.0 0.00 0.83 0.00 100 1014.0
20260502070321 58 0.0 0.0 0.00 0.83 0.00 100 1014.0
20260502065803 58 0.0 0.0 0.00 0.83 0.00 100 1013.9
20260502065025 58 0.0 0.0 0.00 0.83 0.00 100 1013.9
20260502064518 58 0.0 0.0 0.00 0.83 0.00 100 1013.9
20260502064012 58 0.0 0.0 0.00 0.83 0.00 100 1014.0
20260502063448 58 0.0 0.0 0.00 0.83 0.00 100 1014.0
20260502062928 58 0.0 0.0 0.00 0.83 0.00 100 1014.0
20260502062418 58 0.0 0.0 0.00 0.83 0.00 100 1013.9
20260502061829 58 0.0 0.0 0.00 0.83 0.00 100 1013.9
20260502061601 58 0.0 0.0 0.00 0.83 0.00 100 1013.8
20260502060826 58 0.0 0.0 0.00 0.83 0.00 100 1013.8
20260502060256 58 0.0 0.0 0.00 0.83 0.00 100 1013.8
20260502055724 58 0.0 0.0 0.00 0.83 0.00 100 1013.8
20260502055225 58 0.0 0.0 0.00 0.83 0.00 100 1013.8
20260502054635 58 0.0 0.0 0.00 0.83 0.00 100 1013.8
20260502054126 58 0.0 0.0 0.00 0.83 0.00 100 1013.5
20260502053604 58 0.0 0.0 0.00 0.83 0.00 100 1013.5
20260502053023 58 0.0 0.0 0.00 0.83 0.00 100 1013.5
20260502052522 58 0.0 0.0 0.00 0.83 0.00 100 1013.4
20260502051933 58 0.0 0.0 0.00 0.83 0.00 100 1013.4
20260502051428 58 0.0 0.0 0.00 0.83 0.00 100 1013.4
20260502050926 58 0.0 0.0 0.00 0.83 0.00 100 1013.6
20260502050421 58 0.0 0.0 0.00 0.83 0.00 100 1013.6
20260502045913 58 0.0 0.0 0.00 0.83 1.67 100 1013.6
20260502045405 58 0.0 0.0 0.00 0.83 1.67 100 1013.5
20260502044856 58 0.0 0.0 0.00 0.83 1.67 100 1013.5
20260502044343 58 0.0 0.0 0.00 0.83 1.67 100 1013.5
20260502043834 58 0.0 0.0 0.00 0.83 1.67 100 1013.3
20260502043328 58 0.0 0.0 0.00 0.83 1.67 100 1013.3
20260502042821 58 0.0 0.0 0.00 0.83 1.67 100 1013.7
20260502042242 58 0.0 0.0 0.00 0.83 1.67 100 1013.7
20260502041727 58 0.0 0.0 0.00 0.83 1.67 100 1013.7
20260502041226 58 0.0 0.0 0.00 0.83 1.67 100 1013.3
20260502040712 58 0.0 0.0 0.00 0.83 1.67 100 1013.3
20260502040425 58 0.0 0.0 0.00 0.83 1.67 100 1013.3
20260502035644 58 0.0 0.0 0.00 0.83 1.67 100 1013.3
20260502035137 58 0.0 0.0 0.00 0.83 1.67 100 1013.3
20260502034904 58 0.0 0.0 0.00 0.83 1.67 100 1013.3
20260502034344 58 0.0 0.0 0.00 0.83 1.67 100 1013.2
20260502033553 59 0.0 0.0 0.00 0.83 1.67 100 1013.2
20260502033030 58 0.0 0.0 0.00 0.83 1.67 100 1013.2
20260502032526 58 0.0 0.0 0.00 0.83 1.67 100 1012.7
20260502032020 59 0.0 0.0 0.00 0.83 1.67 100 1012.7
20260502031509 59 0.0 0.0 0.00 0.83 1.67 100 1012.7
20260502030954 59 0.0 0.0 0.00 0.83 1.67 100 1012.2
20260502030454 60 0.0 0.0 0.00 0.83 1.67 100 1012.2
20260502030203 60 0.0 0.0 0.00 0.83 1.67 100 1012.2
20260502025429 60 0.0 0.0 0.01 0.83 1.67 100 1012.2
20260502024918 60 0.0 0.0 0.01 0.83 1.67 100 1012.2
20260502024649 60 0.0 0.0 0.01 0.83 1.67 100 1012.2
20260502023915 60 0.0 0.0 0.01 0.83 1.67 100 1011.7
20260502023413 60 0.0 0.0 0.02 0.83 1.67 100 1011.7
20260502022907 60 0.0 0.0 0.02 0.83 1.67 100 1011.7
20260502021837 60 0.0 0.0 0.02 0.83 1.67 100 1011.2
20260502021333 60 0.0 0.0 0.02 0.83 1.67 100 1011.2
20260502020832 60 0.0 0.0 0.02 0.83 1.67 100 1011.1
20260502020312 60 0.0 0.0 0.02 0.83 1.67 100 1011.1
20260502020040 60 0.0 0.0 0.02 0.83 1.67 100 1011.2
20260502015534 60 0.0 0.0 0.02 0.82 1.66 100 1011.2
20260502014801 60 0.0 0.0 0.02 0.82 1.66 100 1011.2
20260502014245 60 0.0 0.0 0.03 0.82 1.66 100 1011.2
20260502014010 60 0.0 0.0 0.02 0.81 1.65 100 1011.2
20260502013227 60 0.0 0.0 0.02 0.81 1.65 100 1011.2
20260502012725 60 0.0 0.0 0.02 0.81 1.65 100 1011.0
20260502012224 60 0.0 0.0 0.02 0.81 1.65 100 1011.0
20260502011929 60 0.0 0.0 0.03 0.81 1.65 100 1011.0
20260502011152 61 0.0 0.0 0.03 0.81 1.65 100 1010.5
20260502010634 61 0.0 0.0 0.03 0.81 1.65 100 1010.5
20260502010125 61 0.0 0.0 0.03 0.81 1.65 100 1010.5
20260502005612 61 0.0 0.0 0.03 0.81 1.65 100 1010.2
20260502005314 61 0.0 0.0 0.03 0.80 1.64 100 1010.2
20260502004543 61 0.0 0.0 0.07 0.80 1.64 100 1010.2
20260502004033 61 0.0 0.0 0.10 0.79 1.63 100 1010.1
20260502003532 61 0.0 0.0 0.13 0.79 1.63 100 1010.1
20260502003254 61 0.0 0.0 0.14 0.79 1.63 100 1010.1
20260502002752 61 0.0 0.0 0.15 0.79 1.63 100 1009.6
20260502002012 61 0.0 0.0 0.15 0.79 1.63 100 1009.6
20260502001506 61 0.0 0.0 0.14 0.78 1.62 100 1009.6
20260502001000 61 0.0 0.0 0.14 0.78 1.62 100 1009.6
20260502000454 61 0.0 0.0 0.15 0.78 1.62 100 1009.6
20260501235937 62 0.0 0.0 0.17 0.78 1.62 100 1009.6
20260501235428 62 0.0 0.0 0.19 0.77 1.61 100 1009.6
20260501234919 62 0.0 0.0 0.25 0.76 1.60 100 1009.6
20260501234625 62 0.0 0.0 0.22 0.72 1.57 100 1009.6
20260501233835 62 0.0 0.0 0.19 0.68 1.52 100 1009.6
20260501232802 62 0.0 0.0 0.18 0.64 1.48 100 1007.6
20260501232241 62 0.0 0.0 0.20 0.64 1.48 100 1007.6
20260501231730 62 0.0 0.0 0.21 0.64 1.48 100 1007.6
20260501231223 62 0.0 0.0 0.21 0.64 1.48 100 1008.3
20260501230719 63 0.0 0.0 0.20 0.63 1.47 100 1008.3
20260501230218 63 0.0 0.0 0.19 0.62 1.46 100 1008.3
20260501225711 63 0.0 0.0 0.17 0.60 1.44 100 1008.4
20260501225202 63 0.0 0.0 0.11 0.53 1.39 100 1008.4
20260501224649 63 0.0 0.0 0.09 0.51 1.35 100 1008.4
20260501224137 63 0.0 0.0 0.08 0.50 1.34 100 1008.4
20260501223900 63 0.0 0.0 0.06 0.48 1.32 100 1008.4
20260501222836 63 0.0 0.0 0.05 0.46 1.30 100 1008.0
20260501222058 63 0.0 0.0 0.02 0.43 1.27 100 1008.0
20260501221536 63 0.0 0.0 0.03 0.43 1.27 100 1008.0
20260501221300 63 0.0 0.0 0.03 0.43 1.27 100 1007.6
20260501220524 63 0.0 0.0 0.03 0.43 1.27 100 1007.6
20260501220005 64 0.0 0.0 0.03 0.43 1.27 100 1007.6
20260501215729 64 0.0 0.0 0.04 0.43 1.27 100 1008.1
20260501214948 64 0.0 0.0 0.03 0.42 1.26 100 1008.1
20260501214431 64 0.0 0.0 0.03 0.42 1.26 100 1008.1
20260501213926 64 0.0 0.0 0.04 0.42 1.26 100 1008.6
20260501213358 64 0.0 0.0 0.06 0.42 1.26 100 1008.6
20260501212851 64 0.0 0.0 0.06 0.41 1.26 100 1008.6
20260501212345 64 0.0 0.0 0.06 0.41 1.25 100 1008.1
20260501211840 64 0.0 0.0 0.06 0.40 1.25 100 1008.1
20260501211334 64 0.0 0.0 0.07 0.40 1.24 100 1008.1
20260501210818 64 0.0 0.0 0.08 0.40 1.24 100 1008.1
20260501210304 64 0.0 0.0 0.09 0.40 1.24 100 1008.1
20260501210006 64 0.0 0.0 0.09 0.40 1.24 100 1008.1
20260501205234 64 0.0 0.0 0.09 0.39 1.23 100 1008.1
20260501204957 64 0.0 0.0 0.09 0.39 1.23 100 1008.1
20260501204158 64 0.0 0.0 0.08 0.38 1.23 100 1006.9
20260501203651 64 0.0 0.0 0.08 0.38 1.22 100 1006.9
20260501203145 64 0.0 0.0 0.06 0.36 1.20 100 1006.9
20260501202640 64 0.0 0.0 0.05 0.35 1.19 100 1006.6
20260501202404 64 0.0 0.0 0.05 0.34 1.18 100 1006.6
20260501201616 64 0.0 0.0 0.05 0.33 1.17 100 1006.6
20260501201110 64 0.0 0.0 0.04 0.32 1.17 100 1007.5
20260501200532 64 0.0 0.0 0.07 0.32 1.16 100 1007.5
20260501200033 65 0.0 0.0 0.12 0.31 1.15 100 1007.5
20260501195530 64 0.0 0.0 0.12 0.30 1.15 100 1007.5
20260501195256 64 22 9.6 10.4 0.13 0.30 1.14 100 1007.5
20260501194458 64 22 9.6 18.2 0.13 0.30 1.14 100 1007.5
20260501193957 64 22 9.6 18.2 0.14 0.30 1.14 100 1007.0
20260501193456 64 32 9.6 18.2 0.14 0.30 1.14 100 1007.0
20260501192955 64 32 9.6 18.2 0.15 0.30 1.14 100 1007.0
20260501192450 64 37 11.3 18.2 0.15 0.30 1.14 100 1006.9
20260501191943 64 31 11.3 18.2 0.15 0.29 1.13 100 1006.9
20260501191441 64 40 9.6 18.2 0.15 0.28 1.12 100 1006.9
20260501191213 64 63 7.0 11.3 0.17 0.28 1.12 100 1008.0
20260501190712 64 38 6.1 9.6 0.14 0.24 1.08 100 1008.0
20260501185940 64 5 6.1 11.3 0.08 0.18 1.03 100 1008.0
20260501185441 64 28 8.7 17.4 0.08 0.18 1.02 100 1007.0
20260501184940 64 26 11.3 19.1 0.09 0.17 1.01 100 1007.0
20260501184441 64 67 11.3 19.1 0.13 0.17 1.01 100 1007.0
20260501183939 64 76 11.3 18.2 0.15 0.16 1.00 100 1006.3
20260501183439 64 65 13.0 20.9 0.16 0.16 1.00 100 1006.3
20260501182940 65 51 13.9 20.9 0.15 0.15 1.00 100 1006.3
20260501182434 65 70 13.9 20.0 0.15 0.15 0.99 100 1007.1
20260501181922 65 73 12.2 19.1 0.14 0.14 0.98 100 1007.1
20260501181411 65 68 8.7 16.5 0.13 0.13 0.97 100 1007.1
20260501180909 65 33 6.1 14.8 0.11 0.11 0.95 100 1007.7
20260501180410 65 304 7.8 19.1 0.10 0.10 0.94 100 1007.7
20260501175908 65 37 10.4 19.1 0.10 0.10 0.94 100 1007.7
20260501175641 65 48 13.0 19.1 0.10 0.10 0.94 100 1007.5
20260501175140 65 71 13.0 19.1 0.07 0.07 0.92 100 1007.5
20260501174411 65 76 10.4 17.4 0.03 0.03 0.88 100 1007.5
20260501173909 65 28 7.8 14.8 0.01 0.01 0.85 100 1008.1
20260501173409 65 5 9.6 0.0 0.00 0.00 0.84 100 1008.1
20260501172812 65 15 9.6 18.2 0.17 0.86 0.83 100 1008.1
20260501172311 65 32 10.4 18.2 0.17 0.86 0.83 100 1008.1
20260501172038 65 32 8.7 14.8 0.17 0.85 0.82 100 1008.1
20260501171307 65 21 7.0 14.8 0.18 0.85 0.82 100 1008.1
20260501170807 65 5 8.7 14.8 0.20 0.83 0.80 100 1008.1
20260501170538 65 26 9.6 18.2 0.33 0.82 0.79 100 1008.1
20260501165807 65 20 9.6 18.2 0.47 0.81 0.78 100 1008.6
20260501165307 65 51 11.3 18.2 0.50 0.81 0.78 100 1008.6
20260501165037 65 21 12.2 18.2 0.49 0.80 0.78 100 1008.6
20260501164538 65 44 10.4 17.4 0.45 0.76 0.74 100 1008.8
20260501163808 65 41 8.7 15.6 0.39 0.70 0.68 100 1008.8